World > North America > United States > Texas > Pharr  

Pharr, TX Hourly Weather Updates

Feedback E-mail the Weather

Quick Clicks

Pharr, TX Weather Maps

°F °C°F °C
Pharr Weather Map
UTC Time: 5/23/2024, 02:59
Your Time:

Pharr, TX Regional Weather

Expires:202405230300;;694527
ASUS44 KSJT 230210
RWRSJT
WEST CENTRAL TEXAS REGIONAL WEATHER ROUNDUP
NATIONAL WEATHER SERVICE SAN ANGELO TX
900 PM CDT WED MAY 22 2024

NOTE: "FAIR" INDICATES FEW OR NO CLOUDS BELOW 12,000 FEET WITH NO
SIGNIFICANT WEATHER AND/OR OBSTRUCTIONS TO VISIBILITY.


TXZ229-232-234-239-242-243-245-247-249-250-
253-255-257-343-347-443-230300-
TEXAS COASTAL BEND, RIO GRANDE PLAINS DEEP SOUTH TEXAS
  
CITY           SKY/WX    TMP DP  RH WIND       PRES   REMARKS
VICTORIA       CLOUDY    82  77  84 SE13      29.78R TC  28           
BEEVILLE       CLEAR     82  76  81 SE10      29.74  TC  28           
ROCKPORT         N/A    N/A N/A N/A MISG      29.74R                  
PORT ARANSAS   PTCLDY    83  79  86 SE18      29.76R TC  29           
PORT LAVACA    PTCLDY    83  79  86 SE14      29.79R TC  29           
CORPUS CHRISTI PTCLDY    83  79  88 SE17G28   29.73R TC  28           
KINGSVILLE NAS PTCLDY    86  77  74 SE17G26   29.72R TC  30           
COTULLA        CLEAR     91  78  65 SE16G26   29.68R TC  33           
LAREDO         MOCLDY    96  74  48 SE15G25   29.62F TC  36           
BROWNSVILLE    PTCLDY    85  79  82 SE14      29.72R TC  29           
PORT ISABEL    PTCLDY    84  79  85 SE18G29   29.72R TC  29           
HEBBRONVILLE   CLOUDY    90  73  57 SE10      29.71R TC  32           
MCALLEN        CLOUDY    87  75  67 SE17G28   29.71R TC  31           
WESLACO        NOT AVBL                                          

SKY/WX - Weather  TMP - Temperature  DP - Dew Point  RH - Humidity
WIND - Wind Direction/Speed PRES - Barometric Pressure VSB - Visibility
WCI - Wind Chill Index E13G22 Wind - East Wind 13 mph/Gusts of 22 mph

Trending Headlines

Trending Entertainment Headlines

Pharr Radar Loop

Use the map search tool if you want to place a location marker on the radar map...

Pharr Quick Facts

National Two Day Weather Forecast


E-mail the Pharr Weather Forecast

Voice your opinion or tell us about page issues...